Location: Ambatotampy
(18.8181°S, 47.6186°E)
Time: 00:07:34
(UTC+00:00)

Cosmos 1400 Rocket - Pass Details

Date: 21 January 2021
Orbit: 520 x 568 km, 81.2° (Epoch: 24 February)

Event Time Altitude Azimuth Distance (km) Brightness Sun altitude
Rises 01:56:10 0° 183° (S) 2,690 6.6 -7.9°
Reaches altitude 10° 01:58:20 10° 181° (S) 1,800 5.8 -7.5°
Maximum altitude 02:02:17 71° 97° (E) 575 3.1 -6.6°
Drops below altitude 10° 02:06:15 10° 12° (NNE) 1,807 5.3 -5.8°
Sets 02:08:25 0° 10° (N) 2,701 6.2 -5.3°
